Regional Weather Roundup
Issued by NWS Cleveland, OH

Home | Current Version | Previous Version | Graphics & Text | Print | Product List | Glossary On
Versions: 1 2 3 4 5 6 7 8 9 10 11 12 13 14 15 16 17 18 19 20 21 22 23 24 25 26 27 28 29 30 31 32 33 34 35 36 37 38 39 40 41 42 43 44 45 46 47 48 49 50
000
ASUS41 KCLE 020010
RWRCLE
OHIO REGIONAL WEATHER ROUNDUP
NATIONAL WEATHER SERVICE CLEVELAND, OH
800 PM EDT MON SEP 01 2014

NOTE: "FAIR" INDICATES FEW OR NO CLOUDS BELOW 12,000 FEET WITH NO
SIGNIFICANT WEATHER AND/OR OBSTRUCTIONS TO VISIBILITY.

OHZ001>008-015>018-024>027-034-035-043-044-020100-
   NORTHWEST OHIO

CITY           SKY/WX    TMP DP  RH WIND       PRES   REMARKS
DEFIANCE       PTCLDY    80  69  69 SW10      29.82R
FINDLAY        CLOUDY    79  71  76 SW15G21   29.84S
TOLEDO EXPRESS MOCLDY    79  69  71 SW10G23   29.81R
TOLEDO EXEC    CLOUDY    78  71  79 S10       29.82R
LIMA           MOCLDY    80  70  71 SW10      29.86F
$$

OHZ009>014-019>023-028>033-038-089-020100-
   NORTHEAST OHIO

CITY           SKY/WX    TMP DP  RH WIND       PRES   REMARKS
CLE-HOPKINS    MOCLDY    80  70  71 S14       29.86R
CLE-LAKEFRONT  PTCLDY    82  69  64 S15G23    29.82R
CUY CO. ARPT   MOCLDY    79  72  78 SW14G22   29.85S
LORAIN-ELYRIA  LGT RAIN  82  70  66 SW10      29.86R
ASHTABULA      MOCLDY    77  69  76 S9        29.87S
AKRON-CANTON   MOCLDY    78  69  73 S14G20    29.90F
WOOSTER        MOCLDY    78  70  76 SW9       29.90S
MANSFIELD      CLOUDY    78  69  73 S13       29.90S
YOUNGSTOWN     MOCLDY    78  68  71 S10       29.90F
$$

OHZ042-051>053-060>062-070>072-077>081-020100-
  SOUTHWEST OHIO

CITY           SKY/WX    TMP DP  RH WIND       PRES   REMARKS
CINC-COVINGTON CLOUDY    81  71  71 SW8       29.94S
CINC-LUNKEN    CLOUDY    82  72  71 SW12      29.93R
HAMILTON       LGT RAIN  76  73  91 VRB3      29.93R
DAYTON         MOCLDY    81  70  69 SW16      29.92S
WRIGHT-PAT AFB MOCLDY    80  73  77 SW15G21   29.91R
DAYTON GENERAL CLOUDY    80  71  74 SW8       29.92S
WILMINGTON     MOCLDY    79  70  74 SW12      29.93S
$$

OHZ036-037-039>041-045>050-054>059-063>069-073>076-082>088-020100-
  CENTRAL AND SOUTHEAST OHIO

CITY           SKY/WX    TMP DP  RH WIND       PRES   REMARKS
COLUMBUS       MOCLDY    81  68  64 SW13      29.92R
OSU AIRPORT    MOCLDY    80  69  69 SW10      29.91R
BOLTON FIELD   MOCLDY    76  71  85 S8        29.93R
RICKENBACK AFB MOCLDY    77  68  73 S10       29.93R
NEWARK         MOCLDY    79  70  74 SW14      29.92R
MARION         MOCLDY    78  71  79 SW10      29.89R
LANCASTER      MOCLDY    77  71  82 SW9       29.94S
ZANESVILLE     MOCLDY    76  69  79 SW8       29.93S
NEW PHILLY     MOCLDY    72  71  97 SE3       29.92F
$$


USA.gov is the U.S. government's official web portal to all federal, state and local government web resources and services.